Aérodrome :
LOGIN :

S'inscrire | Disclaimer

   EN    FR    IT 

 










Légende :    VFR   VFR Marginal   IFR   IFR Intensif   IFR Très Intensif
Visi : 
Plafond : 
>= 8 km
>= 3000ft
5 à 8 km
1000 à 3000 ft
1500m à 5 km
500 à 1000 ft
800 à 1500m
200 à 500 ft
< 800m
< 200 ft
Symboles :   Orages  Brouillard  Fortes neiges  Fortes précipitations  Vent > 20 kt
SIGMETs :   Divers  Orages  Givrage  Turbulence  Onde Orograph.  Cendres Volcan.







- Altitude de l'aérodrome : 794 ft


LKCV - Čáslav Air Base

DERNIER METAR :
  • 152000Z 32008KT CAVOK 17/11 Q1015 NOSIG RMK BLU BLU

METARs EXPIRÉS :
  • 151900Z 32007KT CAVOK 19/11 Q1015 NOSIG RMK BLU BLU
  • 151800Z 31008KT CAVOK 21/11 Q1014 NOSIG RMK BLU BLU

TAF TAF LKCV
Valide du 15 à 18h jusqu'au 16 à 18h UTC


151700Z 1518/1618 32008KT CAVOK
BECMG 1521/1523 27005KT
TEMPO 1522/1607 VRB02KT BKN014
BECMG 1607/1609 33010KT
TEMPO 1608/1618 33014G24KT 9999 SCT030
Pas de NOTAMs connus pour ce terrain.



MET'MAP, la Météo Aéronautique d'un coup d'oeil ! - Copyright ORBIFLY Décembre 2007 - Disclaimer

ORBIFLY MET'MAP TEAM :

Programmation & Développement : Alexandra Zaïnal
Conception & Développement : Baudouin d'Aumeries
Co-Programmation & Développement : Marc-Olivier Méhu
Soutien technique & logistique : Manuel Goepfert

Contact : metmap@orbifly.com




SOURCES & CREDITS :

   NOAA